This demonstration page uses our WeatherBlox Daily Observations layout. Learn more.

Left ArrowRight Arrow

53.62937, 11.41316

Hourly Observations for May 22, 2021

Temp ( °F °C ) Dew Point ( °F °C ) Humidity (%) Winds ( mph kmh ) Pressure ( in mb ) Visibility ( mi km ) Precip ( " mm )
7:50 am 07:50 Mostly Sunny 54 12 43 6 67 67 S 12 19 29.50 999 7 11 N/A
8:20 am 08:20 Mostly Sunny 55 13 43 6 63 63 S 14 22 29.50 999 7 11 N/A
8:50 am 08:50 Mostly Sunny 55 13 43 6 63 63 S 16 26 29.50 999 30 48 N/A
9:20 am 09:20 Partly Cloudy 55 13 43 6 63 63 S 16 26 29.50 999 30 48 N/A
9:50 am 09:50 Mostly Cloudy 57 14 43 6 59 59 S 16 26 29.50 999 30 48 N/A
10:20 am 10:20 Mostly Cloudy 55 13 43 6 63 63 S 14 22 29.50 999 30 48 N/A
10:50 am 10:50 Mostly Cloudy 57 14 43 6 59 59 S 14 22 29.50 999 30 48 N/A
11:20 am 11:20 Mostly Cloudy 55 13 43 6 63 63 S 15 24 29.50 999 30 48 N/A
11:50 am 11:50 Mostly Cloudy with Light Rain 55 13 43 6 63 63 S 12 19 29.50 999 30 48 N/A
12:20 pm 12:20 Mostly Cloudy with Light Rain 54 12 45 7 72 72 S 13 20 29.50 999 4 6 N/A
12:50 pm 12:50 Mostly Cloudy with Drizzle 54 12 45 7 72 72 S 21 33 29.53 1000 5 8 N/A
1:20 pm 13:20 Mostly Cloudy 54 12 46 8 77 77 S 15 24 29.53 1000 5 8 N/A
1:50 pm 13:50 Mostly Cloudy with Light Rain 54 12 46 8 77 77 SSE 12 19 29.53 1000 5 8 N/A
2:20 pm 14:20 Mostly Cloudy with Drizzle 52 11 46 8 82 82 S 14 22 29.53 1000 4 7 N/A
2:50 pm 14:50 Mostly Cloudy with Drizzle 52 11 48 9 88 88 S 12 19 29.53 1000 4 6 N/A
3:20 pm 15:20 Mostly Cloudy with Drizzle 52 11 48 9 88 88 S 10 17 29.53 1000 4 6 N/A
3:50 pm 15:50 Mostly Cloudy 52 11 48 9 88 88 S 10 17 29.53 1000 4 7 N/A
4:20 pm 16:20 Mostly Cloudy 54 12 48 9 82 82 S 13 20 29.53 1000 30 48 N/A
4:50 pm 16:50 Mostly Cloudy 52 11 48 9 88 88 S 13 20 29.53 1000 30 48 N/A
5:20 pm 17:20 Mostly Cloudy 54 12 48 9 82 82 S 12 19 29.56 1001 30 48 N/A
5:50 pm 17:50 Mostly Cloudy 54 12 48 9 82 82 S 13 20 29.56 1001 30 48 N/A
6:20 pm 18:20 Mostly Cloudy 54 12 48 9 82 82 S 13 20 29.56 1001 30 48 N/A
6:50 pm 18:50 Partly Cloudy 55 13 48 9 77 77 S 12 19 29.56 1001 30 48 N/A
7:20 pm 19:20 Partly Cloudy 55 13 48 9 77 77 S 13 20 29.56 1001 30 48 N/A
7:50 pm 19:50 Mostly Cloudy with Light Showers 54 12 48 9 82 82 S 13 20 29.56 1001 6 9 N/A
8:20 pm 20:20 Mostly Cloudy with Light Showers 50 10 46 8 88 88 SW 10 17 29.59 1002 30 48 N/A
8:50 pm 20:50 Mostly Cloudy with Showers Nearby 50 10 48 9 94 94 WSW 6 9 29.59 1002 30 48 N/A

Powered by AerisWeather